Miscellaneous Local Product
Issued by NWS North Platte, NE

Home | Current Version | Previous Version | Graphics & Text | Print | Product List | Glossary On
Versions: 1 2 3 4 5 6 7 8 9 10 11 12 13 14 15 16 17 18 19 20 21 22 23 24 25 26 27 28 29 30 31 32 33 34 35 36 37 38 39 40 41 42 43 44 45 46 47 48 49 50
387
AXUS43 KLBF 221710
MISLBF


WESTERN AND NORTH CENTRAL NEBRASKA HOURLY WEATHER ROUNDUP
NATIONAL WEATHER SERVICE NORTH PLATTE NE
1200 PM CDT WED MAR 22 2017

NOTE: "FAIR" INDICATES FEW OR NO CLOUDS BELOW 12,000 FEET WITH NO
SIGNIFICANT WEATHER AND/OR OBSTRUCTIONS TO VISIBILITY.

NOTE: STATIONS NOT REPORTING VARIABLES SUCH AS SKY/WEATHER OR
PRESSURE ARE PROVIDED BY RAWS AND APRS NETWORKS AND ARE NOT UNDER
NATIONAL WEATHER SERVICE QUALITY CONTROL.

...OBSERVATIONS IN AND NEAR THE EASTERN PANHANDLE OF NEBRASKA...

CITY           SKY/WX    TMP DP  RH WIND       PRES   REMARKS
PINE RIDGE     CLOUDY    48  36  63 S26G36    29.95F
CHADRON        SUNNY     52  34  50 SW26G35   29.93F
ALLIANCE       CLOUDY    47  34  60 S30G36    30.00F
SIDNEY         CLOUDY    48  33  56 S23G30    30.05F
CRESCENT LAKE    N/A     47  33  59 S17G25      N/A
$$

...OBSERVATIONS IN NORTHERN NEBRASKA AND FAR SOUTHERN SOUTH DAKOTA...

CITY           SKY/WX    TMP DP  RH WIND       PRES   REMARKS
WINNER         PTSUNNY   38  29  70 S24G35    30.15F WCI  27
VALENTINE      CLOUDY    40  28  62 S20G31    30.10F WCI  30
THEDFORD       CLOUDY    42  27  54 S23G29    30.14F
AINSWORTH      CLOUDY    37  31  79 S24G30    30.14F WCI  25
O`NEILL        CLOUDY    34  28  77 SE15G22   30.26F WCI  24
ORD            PTSUNNY   41  23  48 S16G26    30.23F
BROKEN BOW     CLOUDY    42  21  43 S25G35    30.20F
VALENTINE NWR    N/A     37  30  75 S20G29      N/A  WCI  26
HALSEY           N/A     39  22  51 S12G20      N/A  WCI  32
BUTTE            N/A     31  27  83 SE20G29     N/A  WCI  19
CHAMBERS         N/A     40  31  71 SE6         N/A
EWING            N/A     36  29  74 SE7         N/A  WCI  30
$$

...OBSERVATIONS IN SOUTHWEST NEBRASKA AND FAR NORTHEAST COLORADO...

CITY           SKY/WX    TMP DP  RH WIND       PRES   REMARKS
HOLYOKE        FAIR      48  34  57 S26G32    30.10F
IMPERIAL       CLOUDY    48  28  46 S22       30.12F
OGALLALA       CLOUDY    50  30  46 S16G28    30.10F
NORTH PLATTE   CLOUDY    42  26  53 S17G26    30.17F
MCCOOK         CLOUDY    42  25  50 SE15      30.20F
LEXINGTON      CLOUDY    41  23  48 S18       30.22F
STAPLETON        N/A     41  26  55 CALM        N/A
GOTHENBURG       N/A     38  22  52 SE12        N/A  WCI  30
CALLAWAY         N/A     40  24  54 S25         N/A  WCI  29
$$

...OBSERVATIONS IN CENTRAL LINCOLN COUNTY AREA...

CITY           SKY/WX    TMP DP  RH WIND       PRES   REMARKS
N.P. AIRPORT   CLOUDY    42  26  53 S17G26    30.17F
N.P. DOWNTOWN    N/A     41  28  58 SE7G16      N/A
N.P. SOUTHEAST   N/A     40  27  59 S12G20      N/A  WCI  33
N.P. HILLCREST   N/A     41  28  60 S15G24      N/A
$$

...SOME OBSERVATIONS FROM AROUND THE REGION...

CITY           SKY/WX    TMP DP  RH WIND       PRES   REMARKS
DENVER         CLOUDY    50  33  52 NW5       30.00F
LIMON          SUNNY     49  36  61 S18       30.06F
ASPEN          CLOUDY    58  13  17 S22G33    30.13R
LARAMIE        CLOUDY    62  21  20 W31G38    30.00S
GILLETTE       CLOUDY    61  40  45 S15       29.80F
CHEYENNE       CLOUDY    50  34  54 S10       30.00F
SCOTTSBLUFF    CLOUDY    51  30  44 SE14      29.98F
GRAND ISLAND   PTSUNNY   44  23  43 SE17      30.29F
OMAHA          CLOUDY    40  23  50 SE12      30.41F WCI  33
SIOUX FALLS    CLOUDY    32  18  56 SE18      30.37F WCI  20
PIERRE         CLOUDY    40  32  73 S22G31    30.09F WCI  30
RAPID CITY     CLOUDY    48  36  63 S20G25    29.83F
BISMARCK       CLOUDY    37  25  61 S23G33    30.06F WCI  26
KANSAS CITY    PTSUNNY   50  24  36 E15       30.37S
HILL CITY      CLOUDY    46  26  45 SE13      30.24F
WICHITA        CLOUDY    52  30  43 SE16      30.25F
DODGE CITY     CLOUDY    48  28  46 SE10      30.22F
OKLAHOMA CITY  MOSUNNY   63  46  54 E14       30.17S
DALLAS         PTSUNNY   78  65  63 S12       30.10S
AMARILLO       CLOUDY    52  41  66 E8        30.19F
$$




USA.gov is the U.S. government's official web portal to all federal, state and local government web resources and services.